Theta_e
325 314 313 312 296 293 291 297 304 305 309 322 323 325 324 326 324 320 338 349 356 359 361 363 364 364 364 363 362 361 360 360 360 360 360 360 361 362 363 362 362 361 360 358 355 356 357 356 354
323 316 310 302 291 287 291 298 301 305 310 326 329 329 328 324 329 332 342 353 356 360 360 361 364 364 364 363 361 361 360 360 361 361 360 360 361 361 362 361 361 359 358 357 355 356 357 356 355
321 315 301 294 289 288 291 299 303 306 309 326 329 333 331 328 336 341 349 353 357 358 360 360 363 363 363 362 361 361 360 360 360 361 361 360 361 360 360 360 359 357 356 355 355 356 356 355 355
307 305 302 291 290 294 299 303 303 306 309 314 333 330 332 341 339 345 351 353 353 355 359 362 363 362 362 362 361 361 361 360 360 361 361 360 360 359 359 359 358 358 356 355 355 356 356 356 355
306 300 292 287 291 295 301 302 303 305 306 309 332 324 326 336 349 349 349 350 350 354 360 361 362 363 362 362 361 361 360 360 359 360 361 360 360 359 359 359 359 359 358 356 355 356 357 357 355
299 296 287 288 291 299 301 302 303 305 307 308 327 326 325 344 347 348 349 347 352 354 359 360 363 362 361 361 360 360 360 359 359 359 361 360 358 359 359 360 359 360 359 358 356 357 356 355 354
295 292 287 289 293 296 301 303 302 304 304 308 334 325 329 343 348 350 346 350 353 355 357 359 359 361 362 360 360 359 359 358 358 358 359 359 359 357 358 359 360 359 359 359 358 357 356 356 356
297 294 289 292 295 294 301 303 303 304 308 314 337 323 325 342 349 349 348 352 352 353 355 355 357 358 358 357 360 359 359 358 358 358 359 359 359 358 358 356 358 359 359 358 358 357 356 355 354
300 290 288 291 295 296 302 300 308 311 309 309 322 331 337 347 346 345 347 348 348 350 352 353 354 355 355 356 358 359 360 359 358 358 359 356 352 353 355 354 357 358 358 359 357 356 355 354 353
298 289 292 297 299 298 300 301 305 306 306 307 331 334 341 344 341 342 343 342 344 344 349 352 353 352 353 356 355 355 355 354 353 353 353 349 347 347 353 354 357 357 357 357 356 355 355 354 345
298 295 299 299 302 302 302 303 304 304 302 305 320 330 336 339 339 341 342 343 343 344 346 350 351 352 352 353 353 353 354 353 352 352 349 344 344 347 348 344 349 348 354 348 351 349 348 345 342
297 301 302 302 304 302 302 303 303 302 303 307 310 333 335 335 337 340 341 342 342 342 344 348 350 350 350 351 350 350 350 350 349 349 347 342 336 340 339 339 342 343 344 342 342 342 342 341 340
298 301 304 304 303 304 305 303 303 302 305 307 308 323 333 334 334 339 342 342 341 340 342 343 346 345 345 350 350 350 349 348 348 347 346 341 335 336 336 338 341 343 342 342 338 337 337 337 337
298 300 302 304 303 304 301 302 300 304 305 306 306 311 330 334 334 334 337 339 339 338 339 341 343 340 348 348 346 347 348 347 345 346 346 341 337 335 337 335 340 341 341 341 339 335 335 333 333
298 295 299 300 299 299 301 299 300 305 305 303 304 306 313 324 330 335 336 338 339 338 338 339 341 340 345 343 343 343 343 342 343 344 344 344 338 336 337 337 337 339 340 338 338 336 335 334 334
298 296 291 297 301 301 301 295 304 305 303 304 304 304 307 309 313 320 330 338 338 337 338 339 340 339 341 340 340 340 341 340 341 340 342 344 342 337 335 337 336 337 337 337 335 335 334 334 334
293 290 292 296 300 300 299 297 304 306 303 302 304 303 305 305 309 311 316 331 339 338 339 338 338 339 341 341 339 340 342 339 340 340 340 343 343 341 335 336 337 337 334 337 340 340 337 337 337
289 290 292 294 297 299 296 298 303 304 304 303 301 302 304 304 305 308 312 321 339 339 340 339 339 338 345 343 341 341 343 341 343 343 341 342 342 343 342 343 339 342 344 342 343 341 342 340 339
295 293 292 296 300 298 297 298 300 303 302 303 301 302 301 302 305 306 308 327 338 339 340 339 339 340 341 347 342 341 341 342 343 345 346 343 342 343 342 344 346 346 345 343 341 340 339 338 339
293 292 292 296 299 297 296 295 299 301 301 304 304 301 305 301 302 305 306 324 338 339 341 341 340 341 342 344 349 346 343 346 346 346 348 347 344 345 343 344 345 347 345 345 342 341 336 336 337
292 290 291 291 295 297 294 292 295 299 301 304 306 306 305 305 303 303 304 306 338 339 340 341 340 341 344 345 344 344 345 345 346 344 347 350 349 348 347 347 349 350 349 346 343 341 336 331 335
290 296 295 295 291 285 293 285 293 294 297 302 303 305 305 304 304 305 303 305 335 339 340 340 339 340 345 347 346 344 344 342 345 346 347 351 351 350 352 352 349 349 347 345 341 339 332 333 331
294 299 297 297 291 288 290 283 288 294 295 297 300 303 304 306 306 305 304 304 317 340 341 339 338 342 345 347 348 345 344 344 346 348 347 347 347 349 350 348 349 347 343 340 341 336 334 336 334
299 297 295 295 290 284 289 286 288 290 293 297 301 303 305 306 303 305 305 305 314 344 344 343 342 343 345 348 350 346 344 345 345 347 346 346 346 346 347 346 344 345 343 341 338 338 336 333 333
296 291 284 282 282 283 291 287 289 294 297 299 301 303 304 304 302 303 303 305 310 335 345 345 345 346 349 350 351 349 346 346 345 347 346 344 341 343 344 343 341 339 339 337 336 335 335 334 332
291 289 285 278 280 281 291 285 290 299 299 301 304 305 305 304 305 305 304 304 311 325 342 348 346 347 351 352 350 347 345 344 344 345 346 344 342 340 340 338 338 338 337 336 334 335 336 335 332
291 286 293 287 287 283 286 290 295 298 299 300 300 303 303 304 304 306 307 305 314 322 333 343 348 348 350 350 345 343 343 342 343 341 341 341 340 338 337 335 334 333 333 332 331 330 328 326 326
293 296 284 282 278 278 283 285 287 292 296 299 301 303 304 304 300 304 307 306 316 322 327 334 345 348 347 345 342 343 342 340 339 339 338 337 336 335 333 332 330 326 322 318 316 314 314 312 312
290 289 288 287 286 279 278 282 293 294 299 300 302 305 308 310 304 301 307 308 312 320 323 327 329 342 340 341 338 337 336 336 336 335 334 334 332 331 331 326 320 315 310 309 308 307 307 306 305
295 289 291 283 281 286 283 283 299 299 301 304 304 307 313 316 317 310 307 309 307 317 319 324 340 341 339 336 334 333 333 332 332 331 329 325 321 319 314 313 310 308 306 305 304 303 303 302 301
Wind_Speed
6 6 1 4 4 5 5 9 5 7 8 4 3 6 11 11 19 8 7 15 20 16 12 15 20 20 19 19 19 19 18 18 18 19 18 18 18 17 17 16 15 15 16 16 15 14 13 13 12
4 4 4 2 5 0 8 6 7 13 5 7 9 10 4 10 3 7 11 16 22 18 13 13 21 21 19 19 18 18 18 18 18 18 18 17 17 16 16 16 15 16 15 15 14 13 12 11 11
4 2 4 5 5 8 9 6 8 9 4 6 5 3 4 6 6 16 13 22 20 17 12 14 20 21 20 20 19 18 18 18 18 18 17 17 16 15 15 15 15 15 15 14 14 12 11 9 8
2 4 4 4 10 10 17 12 3 14 17 9 5 4 3 6 7 12 24 24 21 16 14 18 20 20 20 21 19 18 18 18 18 17 16 16 16 15 14 14 14 14 14 14 13 12 10 8 6
2 3 1 4 10 9 11 10 6 15 7 4 8 5 4 7 17 26 25 21 22 16 14 16 21 21 20 20 20 19 18 18 18 17 17 16 15 14 13 13 13 13 13 13 12 11 8 6 4
2 3 1 8 8 13 9 8 4 10 10 13 10 9 6 13 22 22 21 20 18 19 15 15 20 22 21 20 20 19 18 17 17 17 16 15 15 14 13 13 12 12 12 11 11 9 8 6 4
6 4 6 5 8 12 14 3 7 8 7 19 10 9 1 19 20 20 21 19 16 16 14 13 14 17 21 21 20 19 18 17 17 17 16 16 15 14 13 12 12 11 10 9 8 7 7 5 4
5 5 4 6 10 13 6 3 3 4 14 13 19 9 9 17 19 17 19 17 15 14 12 14 14 14 13 14 21 20 19 18 17 17 16 15 14 13 12 11 10 10 9 9 9 8 8 7 6
2 3 7 8 6 7 9 5 3 5 8 4 7 7 17 26 22 19 15 13 13 12 13 14 15 15 14 11 13 18 20 18 16 14 15 11 5 6 8 8 10 10 11 10 9 9 8 8 8
6 6 12 8 10 8 9 8 8 9 13 10 7 8 22 27 24 23 20 16 15 16 14 14 15 14 14 11 12 9 10 8 7 7 8 5 6 5 7 9 11 10 9 9 9 8 8 7 4
7 13 10 6 12 12 18 24 5 8 8 3 7 20 23 25 22 21 19 22 20 17 12 12 13 13 12 11 10 7 5 6 5 8 7 6 5 5 4 3 4 4 8 4 6 5 4 5 4
9 10 15 8 9 8 14 11 21 4 10 7 6 12 25 25 22 22 21 20 20 20 18 15 12 11 7 6 9 9 8 6 5 6 7 5 3 4 4 3 4 4 3 5 4 3 4 5 6
11 11 10 12 12 17 16 25 24 17 13 13 5 7 16 22 22 19 21 19 17 19 19 18 16 12 8 10 8 7 7 7 7 5 6 4 4 5 4 4 4 4 4 4 4 4 4 5 5
5 7 15 16 16 15 17 20 5 29 9 11 2 11 14 20 21 17 18 21 23 21 22 21 19 16 14 11 9 7 6 6 6 7 8 8 6 5 5 5 5 4 5 4 5 6 6 6 5
6 12 15 17 4 6 2 12 24 27 4 10 8 8 9 10 8 19 21 20 21 18 20 22 20 18 17 16 13 9 8 7 8 8 9 10 9 7 6 5 5 6 5 6 4 5 4 4 5
6 5 8 2 11 5 8 26 30 5 7 12 10 8 9 7 8 8 10 17 15 14 17 17 16 17 17 14 12 10 9 8 8 6 8 11 9 8 6 4 5 6 4 5 4 4 4 4 4
4 13 13 11 1 6 13 30 30 6 9 11 10 8 9 9 7 8 8 13 18 19 18 18 17 18 20 17 14 13 13 9 8 7 7 10 10 9 7 5 5 6 5 4 4 3 3 3 4
7 11 8 17 4 6 13 28 19 8 9 13 10 8 9 9 12 8 11 8 16 20 22 21 16 17 16 11 11 9 8 9 8 8 8 9 8 9 7 5 6 5 2 2 2 3 3 3 3
12 14 14 11 8 11 20 25 18 11 8 14 10 11 10 11 10 8 8 11 16 18 18 18 17 14 13 9 10 9 10 8 8 8 11 10 9 9 8 6 5 5 5 5 5 2 4 2 2
16 20 23 19 16 15 20 22 13 8 9 15 16 11 15 8 9 8 8 10 18 20 19 17 18 16 11 10 9 8 11 5 8 8 8 10 11 10 9 9 8 7 5 5 5 4 1 2 2
18 18 18 19 17 18 18 20 14 8 6 8 17 17 18 17 14 11 10 10 14 19 19 19 17 16 13 10 5 3 4 3 2 3 5 6 10 11 11 10 6 6 5 5 4 3 4 2 1
16 17 17 14 9 12 5 17 17 6 9 9 10 18 17 16 12 12 11 9 16 19 19 21 20 13 10 10 9 14 11 9 7 4 4 5 8 9 10 8 5 6 3 5 4 3 1 2 4
13 13 5 9 1 2 8 3 6 6 7 9 10 10 15 19 18 13 10 12 13 18 21 21 21 16 15 15 13 10 12 5 3 3 6 5 5 5 5 5 6 6 3 3 3 3 4 3 2
19 12 6 6 1 6 11 6 13 10 8 8 9 8 13 20 10 11 11 10 13 17 20 21 23 21 20 18 14 15 10 8 4 5 6 6 5 5 4 3 4 5 4 3 2 2 3 2 0
8 5 2 5 7 5 9 5 13 8 13 14 18 14 10 11 9 9 10 10 12 19 21 22 24 22 21 20 18 15 14 12 10 9 8 9 3 3 6 5 5 3 5 5 5 5 5 4 4
8 11 5 4 4 6 6 6 14 18 13 8 19 16 9 11 11 13 13 12 13 17 19 21 24 22 20 21 18 13 15 7 8 9 7 6 4 5 5 7 7 7 6 5 5 4 4 4 4
4 6 12 10 9 1 4 7 11 17 14 14 14 14 9 9 11 16 16 12 12 15 18 20 22 22 21 20 13 12 11 12 9 8 7 7 9 8 9 9 8 6 6 5 6 6 6 7 7
7 4 3 3 6 5 6 7 11 7 4 6 5 9 8 9 9 10 14 12 14 17 17 17 19 21 17 14 11 10 12 13 12 11 11 12 10 11 11 9 9 8 8 9 10 8 8 10 6
3 2 4 4 4 5 3 9 1 6 4 7 8 11 15 11 13 10 14 17 16 17 17 16 11 15 15 15 14 15 12 13 12 13 12 12 10 10 12 10 9 10 10 8 9 9 7 8 6
3 3 1 3 5 5 4 10 1 1 2 4 9 12 20 13 9 13 17 20 14 18 16 15 17 17 16 17 16 15 15 13 13 14 12 11 12 11 12 13 12 11 10 8 9 9 6 6 7
Wind_Direction
320 301 280 31 45 63 256 251 244 341 321 215 174 142 142 164 143 224 161 145 137 148 155 148 139 136 134 129 127 129 126 121 117 116 117 117 117 117 117 118 119 121 122 123 123 124 125 126 127
323 313 47 76 103 206 263 214 254 245 279 353 88 104 128 180 250 106 120 151 149 142 151 152 144 140 138 133 133 132 130 127 125 124 125 124 125 123 123 125 125 126 127 128 129 131 130 131 131
290 186 100 148 166 204 242 138 250 286 314 249 99 33 153 195 196 155 140 144 142 141 150 158 147 143 142 138 138 138 135 134 132 132 133 134 132 130 131 132 131 132 133 134 136 137 137 138 135
324 18 0 141 218 246 236 268 335 310 304 192 150 159 284 251 163 151 140 144 142 143 148 157 148 146 145 142 142 142 142 142 140 139 139 140 139 138 139 138 137 137 140 143 143 144 146 150 151
39 67 243 218 238 253 252 249 257 280 274 339 244 166 211 354 116 133 142 151 142 145 148 154 151 148 147 145 147 149 149 149 147 147 147 148 146 143 143 142 141 144 146 149 149 150 150 161 168
19 102 159 226 235 246 255 241 237 260 295 289 202 156 171 135 131 143 150 150 145 141 149 156 156 152 151 152 152 154 155 154 153 153 153 154 153 151 151 149 148 151 150 153 155 152 153 168 188
146 111 228 234 236 259 251 194 219 260 258 285 183 140 266 151 147 147 147 137 142 136 146 157 157 156 155 156 156 159 160 159 160 158 159 161 161 159 156 156 155 154 152 154 152 155 162 182 214
153 120 243 234 240 262 262 248 175 255 276 304 171 154 180 166 150 136 136 130 135 140 150 160 160 160 158 162 162 163 165 166 164 164 165 166 164 162 163 159 162 156 155 160 164 175 186 200 220
100 150 222 219 232 259 301 297 126 300 284 326 256 186 166 145 141 132 131 134 135 148 156 164 165 164 164 162 170 166 168 169 166 166 168 163 159 159 166 171 171 170 172 177 180 190 201 213 229
163 196 216 196 222 266 287 284 3 346 317 325 314 110 142 148 150 147 154 157 157 163 165 165 167 168 165 166 169 164 169 169 163 160 164 160 161 163 170 183 185 184 186 187 193 203 213 222 230
201 230 221 234 232 252 271 278 287 263 290 271 250 154 157 157 156 156 166 166 167 163 158 164 163 165 164 167 168 170 160 162 164 168 168 168 168 182 174 173 179 182 197 199 202 210 212 216 223
255 239 233 256 261 268 268 299 279 289 259 272 320 203 163 164 164 166 166 167 162 164 161 159 161 156 163 149 166 172 174 170 172 181 175 167 164 175 185 181 187 182 194 204 210 211 223 227 232
229 236 248 250 241 248 264 259 269 280 263 276 161 230 189 175 171 174 171 166 157 164 163 164 161 162 150 161 166 170 171 173 178 175 183 169 177 185 181 193 184 193 184 196 212 222 230 238 235
257 234 251 251 253 242 244 265 256 260 222 262 154 243 209 193 180 169 167 171 171 167 170 166 166 165 160 163 168 172 172 178 176 181 188 186 187 186 189 187 199 202 198 201 209 211 214 231 216
252 267 280 251 222 224 257 275 244 255 188 243 258 211 236 190 179 169 173 173 172 177 164 168 170 167 166 167 169 173 180 176 187 190 186 193 194 195 188 185 197 207 202 202 209 232 222 230 226
292 250 254 313 239 227 189 261 253 256 212 226 240 212 248 233 186 175 156 163 165 155 163 170 171 167 167 172 174 175 178 177 188 192 190 197 199 194 195 192 200 202 198 203 205 225 233 230 226
239 256 274 294 208 226 196 255 259 221 222 231 240 187 218 252 233 190 192 160 165 161 162 173 175 173 174 173 178 177 177 178 184 183 192 197 198 199 195 195 217 190 191 194 194 211 179 181 216
231 260 257 257 190 256 261 261 265 247 229 233 223 212 197 215 232 219 166 169 166 166 168 173 178 179 179 182 173 174 182 186 176 185 193 193 203 193 188 191 207 182 155 223 202 179 207 202 216
268 274 273 274 261 227 250 265 262 253 228 239 220 226 190 213 231 226 188 177 162 168 172 177 173 182 176 173 176 178 192 188 182 180 196 190 194 198 184 198 184 160 169 202 206 194 215 268 124
243 254 261 275 267 263 265 268 269 256 237 233 228 222 238 192 218 214 221 149 165 168 177 179 189 182 180 178 174 191 188 185 186 176 188 188 193 198 195 197 204 198 176 192 189 181 162 333 138
242 242 258 255 262 259 272 275 262 246 254 255 241 223 219 216 197 213 201 168 163 172 175 182 185 187 182 181 148 93 79 34 113 167 156 183 192 197 199 200 187 185 173 191 179 157 144 250 263
251 261 272 288 256 248 235 262 257 226 229 234 240 232 221 220 216 196 192 163 176 179 178 186 180 175 179 168 166 187 183 196 198 177 139 164 185 192 197 190 173 153 159 172 148 135 236 189 265
268 287 323 306 303 193 281 249 267 190 245 239 230 233 226 227 208 205 199 176 183 177 181 186 187 178 181 184 193 177 192 166 174 110 131 138 147 139 133 115 143 139 145 150 159 153 208 205 242
252 259 331 279 181 253 249 186 261 236 214 261 264 266 245 222 215 196 197 169 173 179 181 185 190 189 192 179 183 180 163 167 139 171 164 146 133 130 147 161 152 128 128 142 131 159 144 221 176
225 104 290 223 214 217 226 255 252 258 242 220 245 248 223 222 205 201 196 186 171 182 181 181 185 187 191 182 185 174 174 174 161 151 156 147 168 131 149 136 116 104 99 98 108 107 86 75 79
189 165 187 249 181 240 229 203 248 251 262 249 240 247 229 219 220 208 201 198 184 176 181 184 184 181 184 183 182 167 171 156 147 158 158 117 118 108 104 99 91 95 103 112 111 94 82 95 80
180 167 195 206 258 246 235 281 283 262 263 262 254 244 243 215 223 224 217 186 181 173 178 185 184 177 181 174 164 163 148 138 128 111 107 112 107 109 104 100 102 94 85 85 89 76 63 56 45
154 157 167 318 186 207 241 243 242 304 253 299 286 297 276 285 228 215 218 200 183 176 177 171 181 171 163 150 137 126 121 121 122 118 115 113 115 114 108 103 98 87 75 74 71 66 51 64 37
137 205 86 114 164 184 264 255 305 276 16 302 298 298 295 266 254 221 210 207 187 171 171 162 146 139 131 122 121 115 117 117 116 113 114 113 109 109 104 104 84 75 69 63 76 70 53 61 47
91 79 26 171 214 245 168 249 275 3 340 273 304 317 298 248 227 231 208 201 177 167 157 153 135 130 124 116 113 111 111 115 112 108 107 103 95 90 94 88 85 81 74 68 69 67 56 55 41